Molokai, HI

10:58 AM HST on June 27, 2017 (GMT -1000)
Molokai

Weather History for PHMK - July, 2013

Change the Weather History Date:

Thursday, July 18, 2013

  Actual Average Record
Temperature  
Mean Temperature 77 °F -  
Max Temperature 82 °F 84 °F 90 °F (1982)
Min Temperature 72 °F 70 °F 60 °F (1989)
Cooling Degree Days 12    
Growing Degree Days 27 (Base 50)    
Moisture  
Dew Point 68 °F    
Average Humidity 78    
Maximum Humidity 91    
Minimum Humidity 60    
Precipitation  
Precipitation 0.00 in - - ()
Sea Level Pressure  
Sea Level Pressure 30.02 in    
Wind  
Wind Speed 10 mph (NE)    
Max Wind Speed 18 mph    
Max Gust Speed 32 mph    
Visibility 10 miles    
Events      
Averages and records for this station are not official NWS values.
T = Trace of Precipitation, MM = Missing Value Source: NWS Daily Summary

Daily Weather History Graph

Daily Weather History Graph

Search for Another Location

Airport or City:

Trip Planner

Search our weather history database for the weather conditions in past years. The results will help you decide how hot, cold, wet, or windy it might be!

Date:

Astronomy

Jul. 18, 2013 Rise Set
Actual Time 5:56 AM HST 7:12 PM HST
Civil Twilight 5:32 AM HST 7:36 PM HST
Nautical Twilight 5:03 AM HST 8:05 PM HST
Astronomical Twilight 4:33 AM HST 8:35 PM HST
Moon 3:24 PM HST (7/18) 1:50 AM HST (7/18)
Length of Visible Light 14h 04m
Length of Day
13h 15m
Waxing Gibbous, 79% of the Moon is Illuminated
Jul 18
Waxing Gibbous
Jul 22
Full
Jul 29
Last Quarter
Aug 6
New
Aug 14
First Quarter

Hourly Weather History & Observations

Time (HST) Temp. Heat Index Dew Point Humidity Pressure Visibility Wind Dir Wind Speed Gust Speed Precip Events Conditions
12:54 AM 73.0 °F - 64.9 °F 76% 30.02 in 10.0 mi NNE 6.9 mph - N/A   Clear
1:54 AM 73.0 °F - 64.9 °F 76% 30.00 in 10.0 mi NE 8.1 mph - N/A   Clear
2:54 AM 73.0 °F - 64.9 °F 76% 30.00 in 10.0 mi NNE 8.1 mph - N/A   Clear
3:54 AM 72.0 °F - 69.1 °F 91% 30.00 in 10.0 mi NE 9.2 mph 17.3 mph N/A   Clear
4:54 AM 72.0 °F - 66.9 °F 84% 30.00 in 10.0 mi NNE 6.9 mph - N/A   Clear
5:54 AM 72.0 °F - 68.0 °F 87% 30.01 in 10.0 mi NE 10.4 mph 18.4 mph N/A   Partly Cloudy
6:54 AM 72.0 °F - 69.1 °F 91% 30.04 in 10.0 mi NNE 12.7 mph 19.6 mph N/A   Scattered Clouds
7:54 AM 75.9 °F - 70.0 °F 82% 30.04 in 10.0 mi NE 17.3 mph 24.2 mph 0.00 in   Overcast
8:54 AM 75.9 °F - 70.0 °F 82% 30.05 in 10.0 mi NNE 12.7 mph 21.9 mph N/A   Partly Cloudy
9:54 AM 79.0 °F - 66.9 °F 66% 30.04 in 10.0 mi NNE 12.7 mph 23.0 mph N/A   Partly Cloudy
10:54 AM 82.0 °F 85.5 °F 69.1 °F 65% 30.03 in 10.0 mi NE 18.4 mph 31.1 mph N/A   Scattered Clouds
11:54 AM 82.9 °F 85.8 °F 68.0 °F 60% 30.02 in 10.0 mi NE 16.1 mph 27.6 mph N/A   Scattered Clouds
12:54 PM 82.0 °F 85.5 °F 69.1 °F 65% 30.01 in 10.0 mi NE 18.4 mph 32.2 mph N/A   Scattered Clouds
1:54 PM 80.1 °F 82.9 °F 69.1 °F 69% 30.01 in 10.0 mi NE 13.8 mph 28.8 mph N/A   Scattered Clouds
2:54 PM 81.0 °F 84.1 °F 69.1 °F 67% 30.00 in 10.0 mi NE 17.3 mph 27.6 mph N/A   Scattered Clouds
3:54 PM 80.1 °F 83.2 °F 70.0 °F 71% 29.99 in 10.0 mi NNE 16.1 mph 24.2 mph N/A   Scattered Clouds
4:54 PM 80.1 °F 82.9 °F 69.1 °F 69% 29.99 in 10.0 mi NNE 13.8 mph 24.2 mph N/A   Scattered Clouds
5:54 PM 78.1 °F - 69.1 °F 74% 30.00 in 10.0 mi NE 12.7 mph 25.3 mph N/A   Scattered Clouds
6:54 PM 75.0 °F - 69.1 °F 82% 30.01 in 10.0 mi NNE 8.1 mph 18.4 mph N/A   Clear
7:54 PM 73.9 °F - 71.1 °F 91% 30.03 in 10.0 mi NE 10.4 mph - N/A   Clear
8:54 PM 73.9 °F - 70.0 °F 87% 30.05 in 10.0 mi NE 9.2 mph 17.3 mph N/A   Clear
9:54 PM 73.0 °F - 69.1 °F 87% 30.07 in 10.0 mi NNE 4.6 mph - N/A   Clear
10:54 PM 72.0 °F - 66.9 °F 84% 30.07 in 10.0 mi ESE 4.6 mph - N/A   Clear
11:54 PM 72.0 °F - 66.9 °F 84% 30.07 in 10.0 mi North 4.6 mph - N/A   Clear